Colby, KS

9:11 PM CDT on April 26, 2018 (GMT -0500)
Shaltz

Weather History for KCBK - January, 2014

Change the Weather History Date:

Friday, January 10, 2014

  Actual Average (KGLD) Record (KGLD)
Temperature  
Mean Temperature 32 °F -  
Max Temperature 41 °F 36 °F 74 °F (1990)
Min Temperature 23 °F 14 °F -14 °F (1962)
Degree Days  
Heating Degree Days 33    
Moisture  
Dew Point 29 °F    
Average Humidity 92    
Maximum Humidity 100    
Minimum Humidity 65    
Precipitation  
Precipitation 0.00 in - - ()
Sea Level Pressure  
Sea Level Pressure 29.66 in    
Wind  
Wind Speed 11 mph (WNW)    
Max Wind Speed 28 mph    
Max Gust Speed 37 mph    
Visibility 7 miles    
Events Fog , Rain , Snow    
Averages and records for this station are not official NWS values.
T = Trace of Precipitation, MM = Missing Value Source: NWS Daily Summary

Daily Weather History Graph

Daily Weather History Graph

Search for Another Location

Airport or City:

Astronomy

Jan. 10, 2014 Rise Set
Actual Time 8:04 AM CST 5:39 PM CST
Civil Twilight 7:34 AM CST 6:09 PM CST
Nautical Twilight 7:01 AM CST 6:42 PM CST
Astronomical Twilight 6:28 AM CST 7:15 PM CST
Moon 1:44 PM CST (1/10) 3:13 AM CST (1/10)
Length of Visible Light 10h 35m
Length of Day
9h 35m
Waxing Gibbous, 75% of the Moon is Illuminated
Jan 10
Waxing Gibbous
Jan 15
Full
Jan 23
Last Quarter
Jan 30
New
Feb 6
First Quarter

Hourly Weather History & Observations

Time (CST) Temp. Windchill Dew Point Humidity Pressure Visibility Wind Dir Wind Speed Gust Speed Precip Events Conditions
12:15 AM 28.4 °F 19.7 °F 28.4 °F 100% 29.70 in 0.5 mi SSE 9.2 mph - N/A Fog Light Freezing Fog
12:35 AM 28.4 °F 18.5 °F 28.4 °F 100% 29.69 in 0.2 mi SSE 11.5 mph - N/A   Overcast
12:55 AM 28.4 °F 19.1 °F 28.4 °F 100% 29.68 in 0.5 mi SSE 10.4 mph - N/A   Overcast
1:15 AM 28.4 °F 20.4 °F 28.4 °F 100% 29.68 in 0.5 mi SSE 8.1 mph - N/A   Overcast
1:35 AM 28.4 °F 19.7 °F 28.4 °F 100% 29.66 in 0.8 mi South 9.2 mph - N/A   Overcast
1:55 AM 28.4 °F 20.4 °F 28.4 °F 100% 29.65 in 0.8 mi South 8.1 mph - N/A   Overcast
2:15 AM 28.4 °F 20.4 °F 28.4 °F 100% 29.65 in 1.0 mi SSE 8.1 mph - N/A   Overcast
2:35 AM 28.4 °F 21.2 °F 28.4 °F 100% 29.64 in 0.5 mi SSE 6.9 mph - N/A Fog Light Freezing Fog
2:55 AM 28.4 °F 19.7 °F 28.4 °F 100% 29.64 in 0.8 mi SSE 9.2 mph - N/A   Overcast
3:15 AM 28.4 °F 21.2 °F 28.4 °F 100% 29.63 in 0.8 mi South 6.9 mph - N/A   Overcast
3:35 AM 28.4 °F 22.2 °F 28.4 °F 100% 29.62 in 0.5 mi South 5.8 mph - N/A Fog Light Freezing Fog
3:55 AM 28.4 °F 22.2 °F 28.4 °F 100% 29.60 in 0.5 mi SSE 5.8 mph - N/A Fog Light Freezing Fog
4:15 AM 28.4 °F 24.6 °F 28.4 °F 100% 29.60 in 0.5 mi SSE 3.5 mph - N/A Fog Light Freezing Fog
4:35 AM 28.4 °F 24.6 °F 28.4 °F 100% 29.62 in 0.5 mi West 3.5 mph - N/A Fog Light Freezing Fog
4:55 AM 28.4 °F 22.2 °F 28.4 °F 100% 29.62 in 0.5 mi NW 5.8 mph - N/A Fog Light Freezing Fog
5:15 AM 28.4 °F 23.3 °F 28.4 °F 100% 29.63 in 1.0 mi NW 4.6 mph - N/A   Overcast
5:35 AM 28.4 °F 20.4 °F 28.4 °F 100% 29.63 in 1.5 mi NW 8.1 mph - N/A   Overcast
5:55 AM 28.4 °F 20.4 °F 28.4 °F 100% 29.66 in 2.5 mi WNW 8.1 mph - N/A   Overcast
6:15 AM 28.4 °F 21.2 °F 28.4 °F 100% 29.66 in 3.0 mi NW 6.9 mph - N/A   Overcast
6:35 AM 28.4 °F 23.3 °F 28.4 °F 100% 29.66 in 1.8 mi NW 4.6 mph - N/A Snow Light Snow
6:55 AM 28.4 °F 19.7 °F 28.4 °F 100% 29.66 in 5.0 mi NW 9.2 mph - N/A   Overcast
7:15 AM 30.2 °F 22.6 °F 30.2 °F 100% 29.65 in 5.0 mi NNW 8.1 mph - N/A   Overcast
7:35 AM 32.0 °F 24.8 °F 32.0 °F 100% 29.63 in 7.0 mi NNW 8.1 mph - N/A   Overcast
7:55 AM 32.0 °F 24.8 °F 32.0 °F 100% 29.62 in 10.0 mi NNW 8.1 mph - N/A   Overcast
8:15 AM 32.0 °F 24.8 °F 32.0 °F 100% 29.63 in 10.0 mi NNW 8.1 mph - N/A   Overcast
8:35 AM 32.0 °F 25.6 °F 32.0 °F 100% 29.63 in 10.0 mi NW 6.9 mph - N/A   Overcast
8:55 AM 32.0 °F 25.6 °F 32.0 °F 100% 29.64 in 10.0 mi WNW 6.9 mph - N/A   Overcast
9:15 AM 32.0 °F 24.8 °F 32.0 °F 100% 29.64 in 10.0 mi West 8.1 mph - N/A   Overcast
9:35 AM 33.8 °F 25.3 °F 32.0 °F 93% 29.64 in 10.0 mi West 11.5 mph - N/A   Overcast
9:55 AM 33.8 °F 24.3 °F 30.2 °F 87% 29.64 in 10.0 mi WNW 13.8 mph 19.6 mph N/A   Overcast
10:15 AM 33.8 °F 23.2 °F 28.4 °F 81% 29.64 in 10.0 mi WNW 17.3 mph 20.7 mph N/A   Overcast
10:35 AM 35.6 °F 24.2 °F 28.4 °F 75% 29.64 in 10.0 mi WNW 21.9 mph 27.6 mph N/A   Mostly Cloudy
10:55 AM 35.6 °F 24.5 °F 28.4 °F 75% 29.64 in 10.0 mi WNW 20.7 mph 27.6 mph N/A   Clear
11:15 AM 37.4 °F 26.6 °F 30.2 °F 75% 29.63 in 10.0 mi WNW 21.9 mph 31.1 mph N/A   Clear
11:35 AM 41.0 °F 31.4 °F 30.2 °F 65% 29.62 in 10.0 mi NW 21.9 mph 36.8 mph N/A   Scattered Clouds
11:55 AM 39.2 °F 27.8 °F 30.2 °F 70% 29.62 in 10.0 mi WNW 27.6 mph 34.5 mph N/A   Mostly Cloudy
12:15 PM 39.2 °F 28.3 °F 30.2 °F 70% 29.61 in 10.0 mi WNW 25.3 mph 35.7 mph N/A   Overcast
12:35 PM 41.0 °F 30.9 °F 30.2 °F 65% 29.60 in 10.0 mi WNW 24.2 mph 32.2 mph N/A   Overcast
12:55 PM 39.2 °F 28.3 °F 30.2 °F 70% 29.59 in 10.0 mi WNW 25.3 mph 33.4 mph N/A   Overcast
1:15 PM 35.6 °F 23.4 °F 33.8 °F 93% 29.59 in 4.0 mi NW 25.3 mph 36.8 mph N/A Rain Light Rain
1:35 PM 35.6 °F 24.5 °F 33.8 °F 93% 29.60 in 2.5 mi WNW 20.7 mph 31.1 mph N/A Snow Light Snow
1:55 PM 35.6 °F 23.0 °F 33.8 °F 93% 29.59 in 10.0 mi WNW 27.6 mph 35.7 mph N/A   Overcast
2:15 PM 35.6 °F 23.7 °F 33.8 °F 93% 29.59 in 7.0 mi NW 24.2 mph 34.5 mph N/A Rain Light Rain
2:35 PM 35.6 °F 23.7 °F 33.8 °F 93% 29.60 in 7.0 mi NW 24.2 mph 35.7 mph N/A Rain Light Rain
2:55 PM 35.6 °F 24.0 °F 33.8 °F 93% 29.61 in 7.0 mi NW 23.0 mph 32.2 mph N/A Rain Light Rain
3:15 PM 35.6 °F 24.5 °F 35.6 °F 100% 29.61 in 7.0 mi NW 20.7 mph 28.8 mph N/A Rain Light Rain
3:35 PM 35.6 °F 24.5 °F 35.6 °F 100% 29.62 in 10.0 mi NW 20.7 mph 29.9 mph N/A Rain Light Rain
3:55 PM 37.4 °F 26.9 °F 35.6 °F 93% 29.63 in 10.0 mi NNW 20.7 mph 29.9 mph N/A   Light Drizzle
4:15 PM 37.4 °F 26.6 °F 33.8 °F 87% 29.63 in 10.0 mi NNW 21.9 mph 26.5 mph N/A   Overcast
4:35 PM 39.2 °F 31.2 °F 33.8 °F 81% 29.64 in 10.0 mi NNW 13.8 mph 20.7 mph N/A   Overcast
4:55 PM 37.4 °F 31.4 °F 33.8 °F 87% 29.65 in 10.0 mi NNW 8.1 mph - N/A   Scattered Clouds
5:15 PM 37.4 °F 34.9 °F 32.0 °F 81% 29.66 in 10.0 mi North 3.5 mph - N/A   Mostly Cloudy
5:35 PM 35.6 °F 31.7 °F 32.0 °F 87% 29.67 in 10.0 mi NNW 4.6 mph - N/A   Mostly Cloudy
5:55 PM 35.6 °F 32.8 °F 32.0 °F 87% 29.67 in 10.0 mi North 3.5 mph - N/A   Scattered Clouds
6:15 PM 33.8 °F - 32.0 °F 93% 29.68 in 10.0 mi Calm Calm - N/A   Clear
6:35 PM 32.0 °F 26.4 °F 30.2 °F 93% 29.68 in 10.0 mi WNW 5.8 mph - N/A   Clear
6:55 PM 28.4 °F 21.2 °F 28.4 °F 100% 29.69 in 10.0 mi West 6.9 mph - N/A   Clear
7:15 PM 26.6 °F 17.5 °F 26.6 °F 100% 29.70 in 10.0 mi West 9.2 mph - N/A   Clear
7:35 PM 26.6 °F 17.5 °F 26.6 °F 100% 29.71 in 10.0 mi West 9.2 mph - N/A   Clear
7:55 PM 26.6 °F 19.1 °F 26.6 °F 100% 29.73 in 10.0 mi West 6.9 mph - N/A   Clear
8:15 PM 23.0 °F 15.8 °F 23.0 °F 100% 29.74 in 10.0 mi WSW 5.8 mph - N/A   Clear
8:35 PM 23.0 °F 15.8 °F 23.0 °F 100% 29.74 in 10.0 mi West 5.8 mph - N/A   Clear
8:55 PM 23.0 °F 13.9 °F 21.2 °F 93% 29.75 in 10.0 mi WNW 8.1 mph - N/A   Clear
9:15 PM 26.6 °F 15.7 °F 21.2 °F 80% 29.75 in 10.0 mi West 12.7 mph - N/A   Scattered Clouds
9:35 PM 26.6 °F 16.8 °F 21.2 °F 80% 29.75 in 10.0 mi West 10.4 mph - N/A   Scattered Clouds
9:55 PM 26.6 °F 18.2 °F 21.2 °F 80% 29.75 in 10.0 mi West 8.1 mph - N/A   Mostly Cloudy
10:15 PM 28.4 °F 19.1 °F 23.0 °F 80% 29.76 in 10.0 mi West 10.4 mph - N/A   Overcast
10:35 PM 30.2 °F 20.8 °F 24.8 °F 80% 29.76 in 10.0 mi West 11.5 mph - N/A   Overcast
10:55 PM 30.2 °F 20.8 °F 26.6 °F 86% 29.77 in 10.0 mi West 11.5 mph - N/A   Overcast
11:15 PM 32.0 °F 22.1 °F 26.6 °F 80% 29.78 in 10.0 mi West 13.8 mph - N/A   Overcast
11:35 PM 30.2 °F 20.2 °F 24.8 °F 80% 29.79 in 10.0 mi West 12.7 mph - N/A   Overcast
11:55 PM 28.4 °F 19.1 °F 23.0 °F 80% 29.79 in 10.0 mi West 10.4 mph - N/A   Mostly Cloudy